When you browse on this site, cookies collect data to enhance your experience and personalize the content and advertising you see.
Visit our Privacy Policy to learn more. By continuing to use the site, you agree to this use of cookies and data.
  • In Switzerland
  • List of Countries
  • For 7 days
  • Water Temperature
  • Weather Map
  • Weather Widgets
  • user-avatar
    Login

    Hourly Weather Dinagepoor

    Today, 19 September, Thursday

    Time Temperature Precipitation Wind Pressure Humidity
    00:00 +30°C° 0 mm 1 mps 755 mmHg 72%
    01:00 +29°C° 0 mm 1 mps 754 mmHg 74%
    02:00 +29°C° 0 mm 1 mps 754 mmHg 76%
    03:00 +29°C° 0 mm 1 mps 754 mmHg 77%
    04:00 +28°C° 0 mm 1 mps 754 mmHg 79%
    05:00 +28°C° 0 mm 1 mps 754 mmHg 80%
    06:00 +28°C° 0 mm 1 mps 754 mmHg 85%
    07:00 +30°C° 0 mm 1 mps 755 mmHg 80%
    08:00 +31°C° 0 mm 1 mps 755 mmHg 75%
    09:00 +32°C° 0 mm 2 mps 755 mmHg 71%
    10:00 +34°C° 0.2 mm 1 mps 755 mmHg 65%
    11:00 +35°C° 0.2 mm 1 mps 754 mmHg 60%
    12:00 +36°C° 0.2 mm 1 mps 754 mmHg 55%
    13:00 +36°C° 0 mm 1 mps 753 mmHg 53%
    14:00 +37°C° 0 mm 1 mps 752 mmHg 51%
    15:00 +37°C° 0 mm 1 mps 751 mmHg 49%
    16:00 +36°C° 0 mm 1 mps 751 mmHg 53%
    17:00 +35°C° 0 mm 1 mps 751 mmHg 57%
    18:00 +34°C° 0 mm 1 mps 751 mmHg 61%
    19:00 +33°C° 0 mm 1 mps 752 mmHg 63%
    20:00 +34°C° 0 mm 2 mps 752 mmHg 64%
    21:00 +32°C° 0 mm 2 mps 753 mmHg 65%
    22:00 +32°C° 0 mm 2 mps 753 mmHg 68%
    23:00 +32°C° 0 mm 2 mps 753 mmHg 70%

    Tomorrow, 20 September, Friday

    Time Temperature Precipitation Wind Pressure Humidity
    00:00 +31°C° 0 mm 2 mps 753 mmHg 73%
    01:00 +31°C° 0.1 mm 2 mps 753 mmHg 75%
    02:00 +30°C° 0.1 mm 2 mps 752 mmHg 77%
    03:00 +30°C° 0.1 mm 1 mps 752 mmHg 79%
    04:00 +30°C° 0 mm 1 mps 752 mmHg 80%
    05:00 +29°C° 0 mm 1 mps 752 mmHg 80%
    06:00 +29°C° 0 mm 1 mps 752 mmHg 81%
    07:00 +31°C° 0 mm 1 mps 753 mmHg 76%
    08:00 +32°C° 0 mm 1 mps 753 mmHg 72%
    09:00 +33°C° 0 mm 1 mps 754 mmHg 67%
    10:00 +34°C° 0.1 mm 1 mps 753 mmHg 63%
    11:00 +36°C° 0.1 mm 2 mps 753 mmHg 59%
    12:00 +37°C° 0.1 mm 2 mps 753 mmHg 55%
    13:00 +37°C° 0.4 mm 2 mps 752 mmHg 54%
    14:00 +37°C° 0.4 mm 2 mps 751 mmHg 52%
    15:00 +37°C° 0.4 mm 2 mps 750 mmHg 51%
    16:00 +36°C° 0 mm 2 mps 750 mmHg 55%
    17:00 +35°C° 0 mm 2 mps 750 mmHg 59%
    18:00 +34°C° 0 mm 2 mps 750 mmHg 62%
    19:00 +34°C° 0 mm 2 mps 751 mmHg 64%
    20:00 +32°C° 0 mm 2 mps 752 mmHg 65%
    21:00 +32°C° 0 mm 2 mps 752 mmHg 67%
    22:00 +31°C° 0 mm 1 mps 752 mmHg 69%
    23:00 +31°C° 0 mm 1 mps 753 mmHg 70%

    Day after tomorrow, 21 September, Saturday

    Time Temperature Precipitation Wind Pressure Humidity
    00:00 +31°C° 0 mm 1 mps 753 mmHg 72%
    01:00 +30°C° 0 mm 1 mps 752 mmHg 74%
    02:00 +30°C° 0 mm 1 mps 752 mmHg 76%
    03:00 +30°C° 0 mm 1 mps 752 mmHg 78%
    04:00 +29°C° 0 mm 1 mps 752 mmHg 79%
    05:00 +29°C° 0 mm 1 mps 752 mmHg 81%
    06:00 +29°C° 0 mm 1 mps 752 mmHg 82%
    07:00 +30°C° 0 mm 2 mps 752 mmHg 77%
    08:00 +32°C° 0 mm 2 mps 753 mmHg 72%
    09:00 +34°C° 0 mm 2 mps 753 mmHg 67%
    10:00 +35°C° 0.1 mm 2 mps 753 mmHg 62%
    11:00 +36°C° 0.1 mm 2 mps 753 mmHg 57%
    12:00 +37°C° 0.1 mm 2 mps 753 mmHg 52%
    13:00 +37°C° 0.1 mm 2 mps 752 mmHg 53%
    14:00 +37°C° 0.1 mm 2 mps 751 mmHg 53%
    15:00 +37°C° 0.1 mm 2 mps 750 mmHg 54%
    16:00 +36°C° 0 mm 2 mps 750 mmHg 59%
    17:00 +34°C° 0 mm 2 mps 750 mmHg 65%
    18:00 +32°C° 0 mm 2 mps 750 mmHg 70%
    19:00 +32°C° 0 mm 1 mps 750 mmHg 71%
    20:00 +31°C° 0 mm 1 mps 751 mmHg 73%
    21:00 +31°C° 0 mm 1 mps 751 mmHg 74%
    22:00 +31°C° 0 mm 1 mps 752 mmHg 75%
    23:00 +30°C° 0 mm 1 mps 752 mmHg 77%

    22 September, Sunday

    Time Temperature Precipitation Wind Pressure Humidity
    00:00 +30°C° 0 mm 1 mps 753 mmHg 78%
    01:00 +30°C° 0.4 mm 1 mps 752 mmHg 80%
    02:00 +29°C° 0.4 mm 1 mps 752 mmHg 81%
    03:00 +29°C° 0.4 mm 1 mps 752 mmHg 83%
    04:00 +29°C° 0 mm 1 mps 752 mmHg 83%
    05:00 +29°C° 0 mm 1 mps 753 mmHg 84%
    06:00 +29°C° 0 mm 1 mps 753 mmHg 84%
    07:00 +30°C° 0.1 mm 1 mps 753 mmHg 79%
    08:00 +32°C° 0.1 mm 1 mps 754 mmHg 73%
    09:00 +33°C° 0.1 mm 1 mps 754 mmHg 68%
    10:00 +34°C° 0.2 mm 1 mps 754 mmHg 62%
    11:00 +34°C° 0.2 mm 0 mps 753 mmHg 57%
    12:00 +35°C° 0.2 mm 0 mps 753 mmHg 51%
    13:00 +37°C° 0 mm 1 mps 752 mmHg 51%
    14:00 +37°C° 0 mm 1 mps 752 mmHg 51%
    15:00 +37°C° 0 mm 1 mps 751 mmHg 51%
    16:00 +35°C° 0 mm 1 mps 751 mmHg 55%
    17:00 +34°C° 0 mm 1 mps 751 mmHg 59%
    18:00 +33°C° 0 mm 1 mps 751 mmHg 63%
    19:00 +33°C° 0 mm 1 mps 752 mmHg 65%
    20:00 +32°C° 0 mm 1 mps 752 mmHg 67%
    21:00 +32°C° 0 mm 1 mps 753 mmHg 69%
    22:00 +31°C° 0.1 mm 2 mps 753 mmHg 71%
    23:00 +31°C° 0.1 mm 2 mps 753 mmHg 72%

    23 September, Monday

    Time Temperature Precipitation Wind Pressure Humidity
    00:00 +30°C° 0.1 mm 2 mps 753 mmHg 74%
    01:00 +30°C° 0.1 mm 2 mps 753 mmHg 77%
    02:00 +30°C° 0.1 mm 2 mps 753 mmHg 79%
    03:00 +29°C° 0.1 mm 2 mps 753 mmHg 82%
    04:00 +29°C° 0.3 mm 2 mps 753 mmHg 83%
    05:00 +29°C° 0.3 mm 2 mps 753 mmHg 83%
    06:00 +29°C° 0.3 mm 2 mps 753 mmHg 84%
    07:00 +30°C° 1.2 mm 2 mps 754 mmHg 79%
    08:00 +31°C° 1.2 mm 2 mps 754 mmHg 73%
    09:00 +32°C° 1.2 mm 2 mps 755 mmHg 68%
    10:00 +34°C° 0.8 mm 2 mps 754 mmHg 66%
    11:00 +34°C° 0.8 mm 2 mps 754 mmHg 64%
    12:00 +35°C° 0.8 mm 2 mps 754 mmHg 62%
    13:00 +34°C° 2.1 mm 2 mps 753 mmHg 65%
    14:00 +34°C° 2.1 mm 2 mps 752 mmHg 68%
    15:00 +34°C° 2.1 mm 2 mps 752 mmHg 71%
    16:00 +33°C° 1.4 mm 3 mps 752 mmHg 75%
    17:00 +31°C° 1.4 mm 3 mps 752 mmHg 78%
    18:00 +30°C° 1.4 mm 4 mps 752 mmHg 82%
    19:00 +29°C° 1.3 mm 4 mps 753 mmHg 83%
    20:00 +29°C° 1.3 mm 4 mps 754 mmHg 84%
    21:00 +29°C° 1.3 mm 4 mps 755 mmHg 84%
    22:00 +29°C° 0.4 mm 3 mps 755 mmHg 86%
    23:00 +28°C° 0.4 mm 3 mps 755 mmHg 88%

    24 September, Tuesday

    Time Temperature Precipitation Wind Pressure Humidity
    00:00 +28°C° 0.4 mm 3 mps 755 mmHg 90%
    01:00 +28°C° 1.3 mm 3 mps 754 mmHg 90%
    02:00 +28°C° 1.3 mm 3 mps 754 mmHg 90%
    03:00 +28°C° 1.3 mm 3 mps 754 mmHg 90%
    04:00 +28°C° 3.3 mm 2 mps 754 mmHg 90%
    05:00 +28°C° 3.3 mm 2 mps 754 mmHg 90%
    06:00 +28°C° 3.3 mm 2 mps 755 mmHg 90%
    07:00 +28°C° 1.3 mm 1 mps 755 mmHg 89%
    08:00 +29°C° 1.3 mm 1 mps 756 mmHg 87%
    09:00 +29°C° 1.3 mm 1 mps 756 mmHg 86%
    10:00 +30°C° 0.7 mm 2 mps 756 mmHg 82%
    11:00 +31°C° 0.7 mm 3 mps 755 mmHg 77%
    12:00 +33°C° 0.7 mm 4 mps 755 mmHg 73%
    13:00 +33°C° 0.5 mm 4 mps 755 mmHg 74%
    14:00 +33°C° 0.5 mm 4 mps 754 mmHg 74%
    15:00 +32°C° 0.5 mm 4 mps 754 mmHg 75%
    16:00 +32°C° 0.5 mm 4 mps 754 mmHg 79%
    17:00 +30°C° 0.5 mm 4 mps 754 mmHg 83%
    18:00 +29°C° 0.5 mm 4 mps 754 mmHg 87%
    19:00 +28°C° 1.6 mm 5 mps 755 mmHg 88%
    20:00 +28°C° 1.6 mm 5 mps 756 mmHg 90%
    21:00 +27°C° 1.6 mm 5 mps 757 mmHg 91%
    22:00 +27°C° 0.3 mm 5 mps 757 mmHg 92%
    23:00 +26°C° 0.3 mm 4 mps 757 mmHg 92%
    Show more